Tracking 29040 objects as of 17-Jun-2024
HD Live streaming from Space Station
objects crossing your sky now

STARLINK-3961

Track STARLINK-3961 now!
10-day predictions
STARLINK-3961 is classified as:


NORAD ID: 52637
Int'l Code: 2022-052AR
Perigee: 546.1 km
Apogee: 547.7 km
Inclination: 53.2 °
Period: 95.4 minutes
Semi major axis: 6917 km
RCS: Unknown
Launch date: May 14, 2022
Source: United States (US)
Launch site: AIR FORCE EASTERN TEST RANGE (AFETR)
Your satellite tracking list
Your tracking list is empty




NASA's NSSDC Master Catalog

Two Line Element Set (TLE):
1 52637U 22052AR  24168.40816404  .00000206  00000-0  31015-4 0  9994
2 52637  53.2159 213.0552 0001213  93.4394 266.6737 15.08835289116630
Source of the keplerian elements: AFSPC